Location: ???????
(55.5931°N, 39.3286°E)
Time: 21:52:48
(UTC+00:00)

Cosmos 2026 Rocket - Pass Details

Date: 14 April 2024
Orbit: 938 x 1000 km, 82.9° (Epoch: 23 May)

Event Time Altitude Azimuth Distance (km) Brightness Sun altitude
Exits shadow 00:49:27 - 191° (S) 3,111 6.2 -12.1°
Reaches altitude 10° 00:50:26 10° 191° (S) 2,738 5.9 -12.0°
Maximum altitude 00:56:45 86° 281° (W) 1,005 4.1 -11.3°
Drops below altitude 10° 01:03:11 10° 11° (N) 2,784 7.1 -10.5°
Sets 01:05:44 0° 12° (NNE) 3,739 7.8 -10.2°
